Location: Bruderhein
(53.8035°N, 112.9265°W)
Time: 10:44:28
(UTC+00:00)

deb Agena D - Pass Details

Date: 10 December 2023
Orbit: 760 x 888 km, 99.8° (Epoch: 05 March)

Event Time Altitude Azimuth Distance (km) Brightness Sun altitude
Rises 12:06:19 0° 109° (ESE) 3,469 ? -29.7°
Reaches altitude 10° 12:09:20 10° 93° (E) 2,517 ? -29.3°
Maximum altitude 12:13:12 20° 49° (NE) 1,902 ? -28.7°
Drops below altitude 10° 12:17:00 10° 4° (N) 2,472 ? -28.2°
Enters shadow 12:18:21 - 356° (N) 2,869 ? -28.0°
